Lid_Strength_Index
12 12 12 12 12 12 12 12 13 12 12 11 10 10 12 11 10 9 8 7 8 8 8 9 9 9 10 11 11 12 13 13 15 15 15 14 15 14 14 14 13 14 14
11 11 11 11 11 11 12 12 12 13 12 12 11 11 11 11 11 10 9 8 8 8 8 9 9 10 10 11 12 12 12 13 14 16 15 15 15 14 15 15 13 14 15
9 9 9 10 10 10 10 10 11 12 12 12 11 11 11 11 10 11 10 9 9 8 8 9 9 10 11 11 12 12 12 13 14 15 16 15 14 14 15 15 15 16 15
8 8 9 9 9 10 10 10 11 11 12 11 10 10 11 11 10 9 10 10 9 9 9 9 9 10 10 11 12 12 13 14 14 14 16 15 15 15 15 16 17 16 16
9 9 9 9 9 9 9 10 11 11 11 11 11 9 9 10 10 10 9 10 11 10 9 9 9 10 11 11 12 12 13 14 15 15 16 17 16 16 16 16 17 17 18
9 9 9 9 9 10 11 11 10 11 11 11 10 9 9 9 9 9 9 9 10 11 11 10 10 13 12 12 12 12 12 14 15 15 16 16 16 16 16 17 17 18 19
9 8 9 10 10 11 10 10 11 12 11 10 10 9 9 8 8 8 8 9 9 10 11 11 11 11 12 12 12 12 13 12 12 14 15 15 16 16 16 17 18 18 18
9 9 10 11 12 11 11 11 12 11 11 10 10 9 8 7 7 7 8 8 8 8 8 10 11 12 12 12 12 13 14 13 13 14 14 15 15 16 16 17 17 19 20
12 12 11 12 12 11 13 13 12 11 10 10 9 10 9 7 6 6 7 8 9 9 10 9 11 12 12 12 14 15 15 15 13 13 13 13 14 14 16 18 19 19 19
13 12 12 13 12 14 14 13 12 11 10 10 10 9 8 7 6 6 7 9 10 11 12 12 13 13 12 12 14 15 15 16 15 14 15 15 16 16 16 17 18 19 21
13 13 13 14 15 14 14 13 12 12 11 11 10 9 8 6 7 6 7 9 10 10 11 12 13 11 12 12 13 14 14 15 14 17 19 20 21 21 21 21 20 19 22
14 14 16 16 15 14 14 14 13 12 11 11 10 10 9 7 7 7 6 7 8 10 11 11 12 11 12 12 13 13 13 14 16 18 19 20 21 22 22 23 23 23 22
16 17 17 16 15 14 15 15 14 13 12 10 11 11 10 9 9 7 7 7 8 10 10 11 11 11 11 12 12 12 14 14 16 17 18 19 20 22 23 23 23 23 24
18 18 17 16 16 16 15 14 14 13 13 12 11 11 11 10 10 8 8 8 9 9 10 11 11 11 12 12 13 13 14 14 15 16 17 19 21 22 23 22 23 23 24
18 18 17 17 17 17 16 15 13 12 12 11 10 10 11 11 10 8 8 9 9 10 10 11 11 12 13 13 13 13 14 14 15 16 18 20 20 21 22 22 23 23 23
20 19 19 19 19 18 17 16 13 11 9 8 8 8 9 9 9 8 7 7 7 8 11 11 12 12 13 13 14 14 14 15 15 16 18 18 20 21 22 21 22 24 21
22 21 21 21 20 19 18 18 18 14 11 9 9 9 9 9 9 9 8 7 7 8 10 11 12 12 12 12 13 13 14 14 15 16 16 17 19 20 20 20 20 20 20
26 24 23 22 21 20 19 19 18 18 17 15 11 10 10 10 11 10 8 7 9 9 10 11 12 12 12 12 12 13 14 14 14 14 16 17 18 19 19 20 20 20 21
25 23 23 23 22 21 21 20 18 18 17 16 15 13 13 12 12 11 10 8 9 9 9 10 10 12 12 12 12 12 12 13 13 14 15 16 17 18 18 19 19 19 23
25 24 23 24 23 23 21 20 19 19 18 17 17 17 17 15 15 16 14 11 9 8 9 9 10 10 11 11 11 12 12 12 13 14 15 16 17 17 19 19 19 20 25
25 25 25 25 25 23 21 20 20 19 19 19 19 18 13 15 18 17 17 16 11 8 8 9 9 9 10 11 11 11 12 13 13 14 15 16 17 18 18 19 19 21 25
27 27 28 27 24 24 23 21 21 21 21 21 21 20 16 20 19 19 19 18 18 11 8 8 8 9 9 10 11 11 12 12 13 14 15 16 17 19 20 20 21 23 24
28 27 27 29 28 26 25 24 23 23 23 23 22 22 22 21 21 21 21 20 19 19 9 8 8 8 9 9 10 10 11 12 13 14 16 17 18 19 19 20 21 23 24
29 29 29 30 29 28 29 26 25 24 24 24 24 23 23 22 23 22 22 21 21 19 13 8 8 8 8 9 9 9 10 12 13 14 15 16 17 18 18 20 21 23 24
31 30 30 31 32 30 29 28 27 27 26 25 25 24 24 23 23 23 22 22 21 19 16 8 8 8 8 9 9 10 11 12 13 14 15 15 17 17 18 20 22 23 24
29 30 31 32 34 33 31 30 28 26 26 25 25 25 24 24 24 23 23 23 22 19 17 10 8 9 9 9 10 11 12 12 14 14 15 16 17 18 18 20 22 23 24